Theta_e
350 350 347 349 347 343 345 342 339 334 336 340 341 347 351 352 354 355 355 349 346 345 343 344 345 347 349 351 352 353 354 355 354 354 354 355 356 357
348 349 347 349 349 345 345 345 343 342 338 340 342 345 348 349 352 355 355 350 346 344 342 341 342 345 346 347 347 348 349 350 350 349 349 349 349 351
349 348 348 349 349 346 345 343 341 342 338 343 345 347 345 344 346 351 349 351 356 344 342 341 340 341 342 343 343 343 344 345 345 345 346 347 347 347
347 348 348 349 348 349 346 345 346 345 343 340 343 347 342 346 347 348 349 352 355 349 341 340 339 338 338 338 338 338 337 338 339 340 342 343 344 345
348 348 348 348 348 348 346 346 346 347 344 341 343 348 345 350 351 350 353 355 358 350 340 338 337 337 335 333 332 331 329 329 330 331 333 335 338 341
349 349 349 347 347 348 346 347 347 346 346 344 344 345 349 352 352 353 350 356 357 357 353 349 346 341 337 333 332 330 326 324 324 324 325 326 329 332
348 349 348 348 344 345 348 348 348 346 345 344 343 343 345 346 345 347 351 351 353 354 357 356 359 357 354 338 342 337 330 327 324 322 322 321 322 324
341 345 349 346 345 339 339 341 346 347 345 343 345 342 345 347 348 349 349 348 347 352 353 354 356 356 356 355 340 335 332 328 326 324 322 319 319 321
342 343 345 347 346 351 341 337 337 337 342 348 345 344 346 347 349 348 347 346 345 351 353 348 352 353 356 344 329 329 329 328 325 322 321 320 318 316
343 344 345 346 348 349 349 348 347 346 344 345 348 350 350 353 351 353 352 349 348 348 353 345 348 348 351 342 326 326 324 322 320 319 316 313 310 309
344 345 347 347 339 332 347 346 347 347 337 333 336 335 333 332 344 350 346 344 343 346 350 350 349 348 347 342 331 322 319 317 316 315 314 311 308 308
342 345 335 343 331 327 342 346 344 345 349 348 342 337 333 338 331 351 351 344 345 343 350 348 346 347 343 335 329 326 321 313 312 312 312 310 307 325
341 340 339 325 322 318 320 343 342 347 343 346 349 349 348 345 342 344 350 350 347 347 350 349 345 342 342 334 331 327 328 321 323 320 311 310 311 316
333 331 331 323 320 318 319 322 322 326 346 345 344 344 346 348 349 346 347 350 353 352 353 353 347 344 340 334 334 329 326 327 325 326 325 316 310 310
334 330 323 318 320 319 318 320 321 332 338 341 341 343 346 348 352 351 349 349 351 352 351 350 349 346 343 340 336 331 326 325 323 327 326 323 323 322
327 329 323 324 321 323 324 326 331 335 337 339 343 346 349 348 347 349 344 340 340 339 341 346 348 345 338 340 335 329 332 327 323 325 325 322 321 320
327 330 324 322 322 323 326 330 334 335 334 339 342 343 344 345 345 347 347 341 338 339 333 332 332 335 336 336 331 331 327 326 325 325 321 322 321 321
322 326 326 326 325 326 327 330 332 333 334 337 339 342 342 342 343 342 343 339 337 339 338 331 327 326 325 330 330 330 328 327 325 322 321 321 320 322
323 324 324 326 327 328 329 330 331 334 337 336 336 338 339 341 337 339 337 336 336 337 336 331 328 328 321 322 325 321 327 324 322 320 321 320 321 322
321 324 324 326 326 327 329 330 332 335 337 336 336 336 339 339 337 338 340 336 336 336 332 329 328 330 329 327 324 327 314 326 324 324 321 321 321 315
320 324 325 326 327 329 330 332 332 332 333 335 334 333 337 337 337 339 340 326 329 335 329 326 330 327 333 327 324 326 326 312 322 327 324 322 320 321
325 324 325 326 326 328 328 330 331 331 333 333 334 334 336 337 338 339 339 338 334 334 332 334 335 329 324 326 327 328 326 326 317 313 317 321 323 319
325 326 327 326 327 328 328 329 331 332 332 335 335 335 336 335 339 340 338 337 334 332 332 329 327 328 328 328 327 328 326 324 323 322 324 316 314 314
Wind_Speed
4 4 3 3 4 4 3 3 2 1 2 1 2 3 5 6 8 8 9 11 14 15 15 16 16 16 16 17 16 15 15 14 13 12 12 12 12 13
4 5 4 3 4 4 3 4 3 2 2 2 3 3 4 5 7 9 10 9 12 14 14 14 14 16 16 16 17 17 16 15 14 14 14 14 13 13
5 6 6 5 4 4 4 3 4 4 4 3 4 2 3 5 5 5 6 8 7 13 14 13 14 15 15 16 16 15 14 15 15 15 15 15 14 14
9 7 8 5 7 5 5 7 6 6 4 5 2 2 5 3 3 4 6 7 8 9 13 13 13 14 15 14 15 14 14 15 15 15 15 15 16 15
10 9 9 7 7 5 6 6 6 5 5 3 2 1 3 3 3 3 4 5 5 6 10 11 12 12 13 13 13 15 14 14 15 15 14 14 14 14
10 10 10 10 10 9 7 7 7 5 5 5 4 4 3 2 2 2 3 3 3 4 7 7 8 10 12 12 14 13 14 15 14 13 12 13 13 11
9 10 11 12 13 11 7 7 7 6 5 5 4 2 3 3 3 2 1 1 2 3 2 3 3 4 5 8 7 11 12 12 10 11 12 12 10 9
11 12 12 13 13 14 15 12 11 8 8 6 4 5 6 3 2 3 2 2 1 2 2 2 3 3 3 3 2 6 7 9 11 12 9 6 5 6
13 12 11 10 13 11 12 15 13 14 11 9 7 8 5 6 3 3 4 3 3 2 3 3 3 4 3 3 3 4 5 6 5 6 7 8 7 6
12 13 13 13 12 11 10 10 10 10 12 10 10 9 9 6 7 5 4 3 2 4 3 4 3 4 2 3 6 3 4 8 11 12 11 10 7 4
12 13 13 13 11 13 11 10 10 10 10 15 15 13 11 11 9 5 5 5 5 4 6 4 3 3 2 2 2 6 7 9 10 12 11 9 6 4
13 18 17 13 12 14 11 10 11 10 8 7 7 10 10 9 11 10 6 7 6 3 6 6 4 4 3 1 2 3 4 5 5 7 8 7 5 0
10 8 4 5 8 7 10 9 10 8 8 8 8 6 6 7 8 10 10 8 7 7 5 6 4 4 3 3 2 4 5 5 4 4 5 6 5 1
8 6 7 9 10 10 7 13 14 9 6 6 7 9 7 7 7 9 11 10 9 10 6 9 4 7 5 3 3 4 5 5 5 5 5 4 4 5
8 9 13 14 18 18 21 15 12 7 8 9 10 10 8 9 8 6 8 10 10 9 6 10 7 6 6 5 3 4 4 5 5 6 5 5 3 2
6 8 9 11 12 12 12 9 9 8 10 11 11 9 7 6 8 8 7 7 5 4 6 8 9 8 5 6 5 3 6 4 5 6 6 4 3 4
10 6 4 5 7 9 10 9 8 7 10 11 10 9 8 8 9 8 7 6 7 6 5 4 2 2 3 6 5 6 5 5 5 5 5 4 4 6
6 8 9 10 9 8 9 8 8 11 10 10 9 9 10 10 9 8 7 8 8 8 7 6 5 3 1 5 9 5 7 6 5 7 5 4 4 5
7 11 10 9 9 9 9 11 11 12 10 10 10 11 11 11 8 10 10 8 8 8 7 7 7 7 6 7 2 11 7 6 5 6 6 6 4 3
9 10 11 10 10 10 10 12 11 9 9 9 10 12 12 12 10 10 11 11 10 8 7 7 8 12 11 8 5 3 16 8 8 8 6 5 4 3
10 11 10 9 10 9 10 10 9 9 10 10 10 13 12 12 12 11 12 12 11 9 10 10 12 10 3 5 4 4 4 15 9 10 6 6 4 4
9 10 10 10 10 10 10 10 10 11 12 12 12 11 12 12 12 13 11 11 10 10 9 8 8 10 7 10 10 9 5 4 10 1 5 8 6 6
9 10 9 9 9 9 9 10 12 10 11 9 10 10 11 11 12 11 10 9 9 9 8 7 7 8 10 11 11 9 8 6 5 7 11 15 13 9
Wind_Direction
249 254 223 233 215 201 191 181 170 199 269 283 266 221 221 217 225 224 224 221 219 219 218 216 219 225 225 231 231 231 238 241 245 247 251 253 256 262
240 238 243 224 231 224 207 199 195 172 239 211 258 257 234 228 217 222 231 224 221 225 227 218 224 227 226 227 230 230 228 231 234 237 240 244 247 250
224 229 239 230 227 218 210 214 206 183 217 259 241 241 263 239 240 232 240 241 238 227 226 221 220 225 226 226 228 230 230 228 231 233 238 241 244 246
229 215 236 217 235 213 204 222 220 204 211 241 253 244 229 240 241 205 235 236 233 216 214 218 220 223 223 226 228 227 230 232 232 233 237 237 239 240
220 218 228 203 222 220 213 217 227 222 213 216 248 297 261 218 203 220 245 240 240 229 218 221 223 226 227 226 226 225 227 235 233 232 237 240 240 243
215 220 224 218 215 219 219 219 223 217 208 224 238 244 254 225 235 200 212 211 240 213 226 228 207 218 226 224 228 227 228 233 234 238 238 242 244 244
226 218 227 226 213 205 205 218 202 209 206 214 235 238 239 238 218 181 216 259 259 234 228 228 224 232 235 226 247 237 232 233 232 233 238 241 243 241
229 234 231 223 227 212 206 206 196 206 213 206 212 223 240 234 206 187 192 219 250 173 187 250 191 238 232 224 249 252 241 231 228 228 231 231 217 220
218 223 228 230 219 228 216 217 215 213 215 202 209 210 211 210 198 219 207 199 215 191 195 251 190 235 199 154 9 287 256 238 199 160 143 133 127 121
234 221 218 229 219 211 223 227 223 215 219 220 221 221 216 197 197 195 198 212 267 249 206 245 196 240 162 144 33 22 128 128 124 122 120 122 126 133
250 241 222 223 219 211 218 231 233 234 218 211 218 229 214 190 186 167 204 191 233 231 199 227 211 221 204 183 90 76 99 114 121 128 134 136 146 166
223 253 232 218 202 209 214 223 232 236 223 217 229 240 231 224 198 204 199 207 209 221 207 197 180 185 231 117 140 152 126 93 127 149 151 160 179 271
223 217 174 200 241 220 209 237 233 232 216 220 231 228 213 203 207 218 214 206 205 221 182 197 187 180 227 147 184 187 193 168 183 184 190 203 190 222
178 162 160 200 237 244 245 228 242 257 248 226 224 230 226 222 213 206 212 217 224 228 175 191 218 204 193 185 200 172 201 195 197 207 210 205 230 238
189 193 206 188 221 263 243 228 223 227 233 228 229 230 216 228 230 216 208 215 225 229 210 198 218 200 210 209 190 194 163 205 195 214 213 214 217 206
231 220 209 239 248 256 248 219 225 216 227 231 227 225 212 205 219 209 202 203 203 206 221 214 213 202 197 219 194 181 201 208 182 207 216 219 213 220
235 232 232 220 233 230 233 234 221 221 231 238 227 224 216 214 219 201 201 184 204 206 193 181 155 175 192 173 198 211 193 207 201 173 184 220 232 220
216 233 230 233 224 223 234 230 223 225 220 232 229 224 225 218 215 204 195 203 204 209 200 173 153 136 145 226 222 206 213 215 190 180 189 208 232 205
221 232 236 233 239 237 225 221 222 222 215 218 225 219 225 226 204 205 202 202 204 205 202 171 178 189 184 220 161 219 204 194 176 186 201 206 218 201
226 225 234 233 232 234 231 231 231 233 216 222 221 228 217 222 213 207 202 197 195 202 189 180 194 201 202 205 193 183 204 186 192 200 197 211 246 301
217 226 225 226 228 225 230 230 227 234 235 235 232 231 222 211 217 211 206 192 191 192 201 200 207 198 174 114 176 196 193 220 195 195 177 198 207 215
220 222 229 228 229 226 228 232 233 235 233 230 224 221 224 213 210 204 197 193 196 198 209 208 181 169 178 205 213 209 196 176 218 284 213 186 179 209
235 235 222 223 236 234 233 235 235 236 240 230 221 218 216 210 212 209 200 203 194 196 197 181 163 181 200 206 214 214 207 196 182 189 236 223 245 264